STARLINK-31513 (59529 NORAD) Tracking and Keplerian Element Data

This shows tracking and keplerian element data for the satellite.

Feedback or suggestion? Click here.




ElementValue
Catalog59529
NameSTARLINK-31513
Epoch Orbit919
Epoch Day159.97992191
Epoch Year2024
RAAN2.4983
Inclination43.0025
Eccentricity0.0007952
Argument of Perigee296.8033
Mean Anonmoly63.2012
Mean Motion15.45124913
Decay Rate0.00147774
L11 59529U 24073U 24159.97992191 .00147774 00000+0 29932-2 0 9990
L22 59529 43.0025 2.4983 0007952 296.8033 63.2012 15.45124913 9194



Live tracking and technical data element details for STARLINK-31513 (NORAD 59529). STARLINK-31513 can be tracked NOW for your location showing map with azimuth and elevation plus other details from your city location.







IsCatalogInMostPopularTable: catalog: 59529, numindb: 12
Update: records affected: 1



GetName: 59529 STARLINK-31513

Hit Count: updated at: Fri, 14 Jun 2024 19:04:06 GMT